{"data":{"norad_id":63173,"epoch":"2026-09-22T22:17:21.738048Z","epoch_age_seconds":101389,"freshness":"FRESH","line1":"1 63173U 25046Q   26265.92872382  .00000014  00000+0  22045-5 0  9991","line2":"2 63173  88.9637 290.3803 0012518  34.0781 326.1171 13.51020363 85859","mean_motion":13.51020363,"eccentricity":0.0012518,"inclination_deg":88.9637,"raan_deg":290.3803,"arg_perigee_deg":34.0781,"mean_anomaly_deg":326.1171,"bstar":2.2045e-6,"rev_number":8585,"period_min":106.5861062821,"perigee_km":1059.1850502241,"apogee_km":1077.8284675389,"semimajor_km":7446.6437588815,"source":"CELESTRAK","updated_at":"2026-09-23T09:00:21.882173Z"}}